Find Angosat 2

NORAD ID: 54033 Int'l Des: 2022-131 Owner: GGPEN Country: AO operational
HEOCIRCULARGSOGEO

Current View

Loading 3D Globe...

About Angosat 2

Angosat 2 (NORAD 54033) is a satellite launched Oct 12, 2022 by GGPEN of AO. It operates in HEO, CIRCULAR, GSO, GEO orbit with a mass of 2150.00 kg.

Upcoming Passes

Passes for default location (London). Set your location on the main map for personalized predictions.

Altitude History

Loading altitude history...

Two-Line Element Set

1 54033U 22131A 26163.83966719 .00000149 00000-0 00000+0 0 9994
2 54033 0.0332 81.5127 0001102 25.2763 119.6618 1.00272607 13436
Epoch: Jun 12, 2026 • Age: 12 hours

Current Status

Altitude 35783.0 km
Velocity 3.07 km/s
Sub-Earth Point 0.01°N, 22.99°E
Launch Date Oct 12, 2022
Age 3.6 years
Type other

Technical Details

Classification Payload
Mass 2150.00 kg
Dry Mass 1800.00 kg
Total Mass 2150.00 kg
Length 4.00 m
Diameter 2.00 m
Span 15.00 m
Shape Box + 2 Pan
Manufacturer RESH
Bus Type Ekspress-1000N
Phase Status In Orbit
Owner/State GGPEN/AO

Most Searched